Probability
0 0 0 0 0 0 0 0 0 26 16 19 26 13 10 0 3 3 3 3 0 0 0 0 0 0 0 3 10 10 16 16 16 23 19 35 35 32 26 19 13 13 13 16
0 0 0 0 0 0 0 3 19 55 35 19 23 16 10 3 3 3 6 0 0 0 0 0 0 0 0 3 3 3 3 3 3 13 23 26 29 29 16 13 3 3 3 13
0 0 0 0 0 0 0 0 10 42 65 26 23 16 6 3 3 0 0 0 3 3 0 3 0 0 0 0 0 0 6 6 6 6 0 6 16 16 10 6 10 3 0 3
0 0 0 0 0 0 0 0 6 39 48 35 23 6 16 0 0 0 3 0 0 3 3 0 0 0 0 0 0 0 0 0 0 0 3 0 0 0 0 3 0 0 3 0
0 0 0 0 0 0 0 0 16 29 13 3 0 0 16 6 0 0 0 0 0 0 0 0 0 0 0 0 0 0 0 0 0 0 0 0 0 0 0 0 0 0 0 0
0 0 0 0 0 0 3 6 16 6 0 0 0 0 10 13 3 0 0 0 0 0 0 0 0 0 0 0 0 0 0 0 0 0 0 0 0 0 0 0 0 0 0 0
0 0 0 0 0 0 0 3 0 0 0 0 0 0 19 13 3 0 0 0 0 0 0 0 0 0 0 0 0 0 0 0 0 0 0 0 0 0 0 0 0 0 0 0
0 0 0 0 0 0 0 0 0 0 0 0 0 0 23 0 0 0 0 0 0 0 0 0 0 0 0 0 0 0 0 0 0 0 0 0 0 0 0 0 0 0 0 0
0 0 0 0 0 0 0 0 0 0 0 0 0 0 6 3 0 0 0 0 0 0 0 0 0 0 0 0 0 0 0 0 0 0 0 0 0 0 0 0 0 0 0 0
0 0 0 0 0 0 0 0 0 0 0 0 0 0 0 0 0 0 0 0 0 0 0 0 0 0 0 0 0 0 0 0 0 0 0 0 0 0 0 0 0 0 0 0
0 0 0 0 0 0 0 0 0 0 0 0 0 0 0 0 0 0 0 0 0 0 0 0 0 0 0 0 0 0 0 0 0 0 0 0 0 0 0 0 0 0 0 0
0 0 0 0 0 0 0 0 0 0 0 0 0 0 0 0 0 0 0 0 0 0 0 0 0 0 0 0 0 0 0 0 0 0 0 0 0 0 0 0 0 0 0 0
0 0 0 0 0 0 0 0 0 0 0 0 0 0 0 0 0 0 0 0 0 0 0 0 0 0 0 0 0 0 0 0 0 0 0 0 0 0 0 0 0 0 0 0
0 0 0 0 0 0 0 0 0 0 0 0 0 0 0 0 0 0 0 0 0 0 0 0 0 0 0 0 0 0 0 0 0 0 0 0 0 0 0 0 0 0 0 0
0 0 0 0 0 0 0 0 0 0 0 0 0 0 0 0 0 0 0 0 0 0 0 0 0 0 0 0 0 0 0 0 0 0 0 0 0 0 0 0 0 0 0 0
0 0 0 0 0 0 0 0 0 0 0 0 0 0 0 0 0 0 0 0 0 0 0 0 0 0 0 0 0 0 0 0 0 0 0 0 0 0 0 0 0 0 0 0
0 0 0 0 0 0 0 0 0 0 0 0 0 0 0 0 0 0 0 0 0 0 0 0 0 0 0 0 0 0 0 0 0 0 0 0 0 0 0 0 0 0 0 0
0 0 0 0 0 0 0 0 0 0 0 0 0 0 0 0 0 0 0 0 0 0 0 0 0 0 0 0 0 0 0 0 0 0 0 0 0 0 0 0 0 0 0 0
0 0 0 0 0 0 0 0 0 0 0 0 0 0 0 0 0 0 0 0 0 0 0 0 0 0 0 0 0 0 0 0 0 0 0 0 0 0 0 0 0 0 0 0
0 0 0 0 0 0 0 0 0 0 0 0 0 0 0 0 0 0 0 0 0 0 0 0 0 0 0 0 0 0 0 0 0 0 0 0 0 0 0 0 0 0 0 0
0 0 0 0 0 0 0 0 0 0 0 0 0 0 0 0 0 0 0 0 0 0 0 0 0 0 0 0 0 0 0 0 0 0 0 0 0 0 0 0 0 0 0 0
0 0 0 0 0 0 0 0 0 0 0 0 0 0 0 0 0 0 0 0 0 0 0 0 0 0 0 0 0 0 0 0 0 0 0 0 0 0 0 0 0 0 0 0
0 0 0 0 0 0 0 0 0 0 0 0 0 0 0 0 0 0 0 0 0 0 0 0 0 0 0 0 0 0 0 0 0 0 0 0 0 0 0 0 0 0 0 0
0 0 0 0 0 0 0 0 0 0 0 0 0 0 0 0 0 0 0 0 0 0 0 0 0 0 0 0 0 0 0 0 0 0 0 0 0 0 0 0 0 0 0 0
0 0 0 0 0 0 0 0 0 0 0 0 0 0 0 0 0 0 0 0 0 0 0 0 0 0 0 0 0 0 0 0 0 0 0 0 0 0 0 0 0 0 0 0
0 0 0 0 0 0 0 0 0 0 0 0 0 0 0 0 0 0 0 0 0 0 0 0 0 0 0 0 0 0 0 0 0 0 0 0 0 0 0 0 0 0 0 0
Height
5875 5877 5878 5877 5877 5877 5877 5877 5876 5874 5873 5872 5870 5869 5868 5868 5867 5867 5866 5865 5864 5863 5861 5859 5857 5854 5851 5848 5844 5840 5837 5834 5831 5828 5825 5822 5819 5816 5812 5809 5805 5801 5797 5794
5875 5875 5874 5873 5873 5874 5874 5875 5873 5871 5870 5868 5866 5865 5864 5863 5863 5862 5861 5860 5859 5857 5854 5852 5849 5846 5842 5839 5835 5831 5828 5825 5822 5819 5815 5812 5809 5806 5803 5800 5797 5794 5791 5789
5874 5873 5871 5871 5872 5872 5873 5873 5871 5868 5867 5865 5864 5862 5861 5860 5859 5858 5857 5855 5853 5851 5848 5845 5842 5839 5835 5831 5827 5823 5819 5816 5812 5809 5806 5802 5799 5796 5794 5791 5788 5786 5784 5782
5870 5870 5869 5870 5871 5871 5872 5870 5868 5866 5865 5864 5863 5862 5859 5857 5856 5855 5853 5851 5848 5845 5842 5839 5835 5831 5827 5823 5819 5815 5810 5806 5802 5798 5795 5792 5788 5785 5783 5780 5778 5777 5775 5774
5869 5868 5868 5869 5869 5869 5869 5867 5866 5865 5864 5863 5861 5861 5858 5855 5853 5851 5848 5846 5843 5840 5836 5833 5829 5824 5819 5815 5810 5806 5801 5796 5792 5787 5783 5780 5776 5773 5771 5768 5767 5766 5764 5764
5868 5867 5867 5867 5867 5867 5866 5866 5865 5863 5863 5862 5859 5859 5855 5852 5850 5847 5844 5841 5838 5835 5831 5826 5822 5817 5812 5807 5802 5797 5792 5787 5781 5777 5772 5768 5764 5761 5758 5756 5754 5753 5752 5752
5869 5868 5867 5867 5866 5866 5865 5866 5865 5863 5862 5860 5857 5855 5853 5849 5846 5843 5840 5836 5832 5828 5824 5819 5815 5810 5804 5799 5793 5787 5782 5777 5771 5766 5761 5757 5753 5750 5747 5744 5742 5740 5739 5738
5870 5869 5867 5866 5865 5864 5864 5864 5865 5864 5862 5859 5853 5851 5849 5845 5842 5838 5835 5831 5826 5822 5817 5812 5806 5801 5795 5789 5783 5777 5771 5766 5760 5755 5751 5746 5743 5739 5736 5733 5730 5728 5726 5724
5869 5868 5866 5864 5863 5863 5862 5861 5860 5859 5857 5855 5852 5847 5844 5841 5837 5834 5829 5825 5820 5815 5809 5803 5797 5791 5785 5779 5773 5767 5761 5755 5749 5745 5740 5736 5732 5728 5725 5722 5719 5716 5714 5711
5867 5866 5865 5863 5862 5861 5860 5858 5857 5856 5854 5853 5850 5845 5841 5837 5833 5828 5823 5819 5813 5808 5801 5795 5789 5782 5776 5769 5762 5756 5749 5744 5739 5735 5730 5726 5722 5718 5714 5710 5707 5703 5700 5697
5866 5865 5863 5861 5859 5858 5857 5856 5854 5853 5850 5849 5847 5845 5838 5833 5828 5824 5818 5813 5807 5801 5794 5788 5780 5773 5766 5759 5752 5745 5739 5734 5729 5724 5720 5715 5710 5705 5700 5695 5691 5687 5684 5680
5864 5863 5861 5860 5858 5856 5855 5853 5852 5851 5848 5845 5843 5841 5834 5829 5824 5819 5813 5807 5801 5794 5787 5779 5772 5764 5757 5750 5742 5736 5730 5724 5719 5714 5709 5703 5697 5691 5685 5678 5673 5668 5664 5660
5863 5862 5861 5859 5859 5856 5853 5851 5849 5847 5844 5842 5839 5838 5829 5825 5819 5814 5808 5801 5794 5787 5780 5772 5764 5756 5749 5741 5733 5726 5720 5714 5708 5703 5696 5690 5683 5675 5668 5660 5653 5647 5641 5637
5862 5861 5861 5860 5857 5854 5851 5849 5846 5844 5842 5838 5835 5831 5825 5820 5814 5808 5802 5795 5788 5780 5772 5764 5756 5748 5740 5732 5724 5717 5710 5703 5697 5690 5683 5675 5667 5659 5650 5642 5633 5625 5619 5614
5861 5859 5857 5856 5853 5851 5849 5846 5844 5841 5838 5834 5830 5825 5820 5815 5809 5803 5796 5789 5782 5774 5766 5757 5749 5741 5732 5724 5715 5707 5700 5693 5686 5678 5670 5661 5652 5642 5632 5623 5613 5605 5597 5591
5859 5857 5855 5853 5851 5848 5846 5844 5841 5837 5834 5830 5826 5821 5815 5810 5803 5798 5791 5784 5776 5768 5759 5751 5742 5733 5724 5715 5706 5697 5690 5683 5675 5666 5657 5647 5637 5626 5615 5604 5593 5584 5576 5569
5856 5855 5853 5851 5848 5846 5844 5841 5837 5834 5830 5826 5821 5817 5810 5805 5798 5792 5785 5778 5770 5762 5753 5744 5735 5725 5716 5706 5697 5688 5680 5672 5663 5654 5644 5634 5622 5611 5599 5587 5575 5565 5556 5549
5854 5852 5850 5848 5846 5843 5842 5838 5834 5831 5826 5821 5817 5812 5806 5800 5794 5787 5780 5772 5764 5756 5746 5737 5727 5718 5708 5697 5688 5678 5670 5661 5652 5643 5632 5620 5608 5596 5583 5570 5558 5548 5538 5531
5851 5849 5847 5845 5843 5840 5837 5834 5830 5826 5823 5818 5813 5808 5802 5796 5789 5782 5775 5766 5757 5748 5739 5729 5719 5709 5699 5689 5679 5670 5661 5652 5642 5632 5620 5608 5595 5582 5569 5556 5544 5533 5523 5515
5848 5846 5844 5841 5839 5836 5834 5830 5826 5823 5818 5814 5808 5803 5797 5791 5785 5777 5768 5760 5751 5742 5732 5722 5712 5701 5692 5681 5671 5662 5652 5643 5633 5622 5610 5597 5584 5571 5558 5545 5533 5521 5512 5504
5845 5842 5840 5837 5835 5832 5829 5825 5822 5819 5815 5809 5803 5798 5791 5785 5779 5772 5764 5755 5746 5736 5726 5716 5705 5694 5684 5674 5664 5654 5645 5635 5625 5613 5601 5588 5575 5562 5549 5536 5524 5513 5504 5497
5840 5838 5836 5834 5831 5829 5824 5821 5818 5814 5808 5803 5798 5792 5786 5779 5773 5766 5758 5749 5740 5730 5720 5709 5699 5688 5678 5667 5657 5648 5638 5628 5617 5606 5594 5581 5568 5555 5542 5530 5518 5508 5499 5492
5836 5834 5831 5830 5828 5823 5819 5816 5812 5808 5803 5798 5793 5787 5781 5774 5767 5760 5752 5743 5733 5723 5713 5703 5693 5682 5672 5661 5651 5641 5632 5622 5611 5600 5588 5575 5562 5549 5537 5525 5514 5505 5496 5489
5830 5828 5826 5823 5821 5818 5814 5811 5807 5803 5798 5793 5788 5782 5775 5769 5762 5754 5746 5737 5727 5717 5707 5697 5687 5676 5666 5655 5645 5635 5626 5616 5606 5595 5583 5571 5559 5546 5534 5523 5512 5503 5495 5488
5825 5823 5821 5818 5815 5812 5809 5806 5802 5797 5793 5787 5782 5776 5770 5763 5756 5748 5739 5730 5721 5711 5701 5691 5681 5671 5661 5651 5640 5631 5621 5612 5602 5591 5580 5568 5556 5544 5533 5522 5512 5503 5495 5488
5818 5817 5815 5813 5810 5807 5804 5800 5796 5792 5787 5782 5776 5770 5764 5757 5750 5742 5733 5724 5715 5705 5695 5685 5675 5666 5656 5646 5636 5626 5617 5608 5598 5588 5577 5566 5555 5544 5533 5522 5513 5505 5497 5490
Wind_Speed
8 7 7 9 9 9 9 8 11 15 15 17 18 19 20 20 20 20 20 20 22 24 27 29 32 34 35 37 38 38 39 39 38 38 38 38 37 37 36 36 35 33 29 28
4 6 9 8 7 7 7 6 10 12 13 14 14 15 15 16 17 18 20 21 23 25 28 30 31 32 33 35 35 36 36 37 38 38 39 39 39 39 38 38 36 33 30 28
4 8 7 6 5 4 5 5 9 10 10 10 10 10 11 12 14 16 17 19 22 24 26 28 30 32 33 35 35 36 37 38 39 40 40 41 41 41 40 39 37 35 34 31
5 6 5 4 5 4 5 8 8 9 8 9 8 11 11 13 15 17 19 21 23 25 27 29 31 33 35 36 37 38 39 40 42 42 43 43 43 43 42 41 40 39 37 35
4 4 4 4 5 5 7 7 8 9 9 10 10 11 15 16 18 20 22 24 26 28 29 31 33 35 36 37 39 40 41 43 44 45 45 45 45 45 44 44 43 42 41 40
3 2 2 3 5 6 6 7 8 9 10 11 13 13 18 19 21 23 25 26 27 28 30 32 34 35 36 38 40 41 42 43 44 45 45 46 46 46 45 45 44 44 44 43
4 3 3 4 5 6 7 7 9 10 9 13 18 16 19 20 22 24 25 26 28 29 31 33 34 35 36 38 39 41 41 42 43 43 43 43 43 42 42 42 42 43 43 44
4 5 5 5 6 7 7 7 8 9 11 16 20 18 18 19 22 23 25 27 29 31 32 33 35 36 37 38 39 40 40 40 40 40 39 39 39 39 39 40 40 41 42 44
4 6 6 7 7 8 9 9 10 11 12 12 16 17 16 19 22 24 26 28 30 32 33 35 36 38 38 39 39 39 38 37 36 35 35 35 36 37 38 39 40 41 43 44
5 7 7 7 7 7 8 9 9 9 10 10 14 19 20 21 23 26 28 30 32 34 35 37 38 39 39 39 39 39 37 35 34 34 34 35 37 38 40 42 44 45 47 48
6 7 8 7 7 8 8 8 9 9 10 11 12 18 20 22 24 27 30 31 33 35 37 39 39 40 40 40 40 39 37 35 35 35 36 38 40 42 44 46 48 49 50 52
7 7 7 7 7 8 8 9 9 10 12 13 15 19 20 23 25 28 31 33 35 37 39 40 40 41 41 41 40 39 38 37 36 37 38 41 44 46 48 50 52 53 54 55
7 7 8 9 10 10 10 10 11 12 13 14 16 21 22 24 27 30 32 34 36 39 40 41 41 41 41 41 41 39 38 38 38 40 42 45 48 50 52 54 56 56 56 56
7 7 6 6 9 12 12 12 13 13 15 16 18 20 24 26 30 32 34 36 38 40 41 41 41 42 42 42 41 40 39 39 40 42 45 47 50 52 54 56 56 56 55 55
8 8 8 9 11 13 14 14 15 15 16 17 20 22 25 28 31 34 35 37 39 41 42 43 43 43 42 42 41 40 39 40 41 44 47 49 51 54 55 56 56 55 55 54
9 9 10 12 13 15 15 15 16 16 18 19 21 24 27 29 32 35 36 38 40 42 43 43 44 43 43 43 42 40 39 40 42 45 48 50 52 54 55 55 55 54 53 52
10 11 12 14 15 16 15 15 16 17 20 21 24 26 29 30 33 36 38 40 42 43 44 44 44 44 44 43 42 40 40 41 43 47 49 52 53 54 54 54 53 51 49 48
12 14 14 15 16 16 16 16 16 18 21 23 25 27 29 31 34 36 38 40 42 44 45 46 46 45 45 44 43 41 41 42 45 48 50 52 53 53 53 52 50 48 46 43
15 15 16 17 18 17 17 16 18 20 21 24 26 28 30 32 36 38 40 42 44 46 47 48 48 47 47 45 43 42 42 43 46 49 51 52 53 52 52 50 47 44 40 36
16 17 18 19 19 18 19 19 20 22 23 25 27 29 31 33 36 39 42 44 46 47 48 49 49 48 48 46 44 43 43 44 47 49 51 52 52 52 50 47 44 40 35 31
17 18 18 19 20 20 20 20 22 24 26 27 29 31 33 36 38 40 42 44 47 48 49 49 49 49 48 47 45 44 43 45 47 49 50 51 51 51 48 45 41 36 32 27
19 20 19 19 19 22 21 22 23 24 26 28 30 32 34 37 40 42 44 46 48 49 49 49 48 48 48 47 45 44 43 44 46 48 49 49 49 49 46 43 39 34 30 24
19 20 20 20 20 21 22 23 24 26 27 29 31 33 36 38 41 44 46 48 49 50 49 48 48 47 47 47 46 44 43 44 46 47 48 48 47 47 44 42 37 32 28 22
20 19 19 20 21 22 23 24 25 27 28 30 32 34 37 40 43 45 48 49 50 50 49 48 47 47 46 46 45 44 43 43 45 46 46 46 45 44 43 40 36 31 26 21
21 20 19 20 21 22 23 24 26 28 29 31 33 35 38 41 44 47 49 50 49 49 49 48 47 46 46 45 44 43 42 42 43 44 45 44 44 43 41 38 34 31 26 21
22 20 20 20 21 22 24 25 27 29 30 32 34 37 39 43 46 48 49 49 49 49 48 47 46 46 45 44 43 42 41 41 42 42 43 43 42 41 39 36 33 29 26 21
Wind_Direction
263 265 257 261 265 263 271 270 275 284 286 285 284 281 279 278 279 280 282 283 284 284 285 286 287 289 291 293 294 293 293 292 292 293 292 292 292 292 293 295 296 297 292 279
279 266 266 271 273 277 284 286 289 293 292 291 289 286 282 280 281 284 285 287 288 289 289 291 293 295 296 298 298 297 295 294 293 292 292 291 291 291 292 293 293 290 288 283
233 257 263 263 269 283 292 279 286 298 300 300 302 300 297 294 294 295 296 297 298 299 299 299 299 299 299 299 299 297 296 295 294 292 291 290 290 289 288 288 287 286 284 281
264 264 258 249 258 253 273 279 289 299 307 308 311 305 305 308 308 307 306 305 305 304 303 302 302 301 300 299 298 298 296 295 294 293 291 290 289 287 286 285 283 281 279 275
280 274 255 241 251 259 258 280 294 301 303 303 306 304 306 309 309 307 306 307 306 305 304 304 303 302 301 300 299 298 297 296 295 293 292 290 289 287 285 283 280 278 275 271
316 305 262 255 272 274 285 293 305 312 314 298 302 302 300 306 305 304 305 306 306 305 305 305 304 303 302 300 299 298 296 295 293 292 291 290 288 287 285 283 280 277 273 270
345 331 309 293 288 289 295 303 307 306 299 287 299 299 297 303 303 305 307 308 308 308 308 307 306 305 304 302 301 299 297 295 293 292 290 289 288 287 285 283 282 279 276 272
323 309 310 303 294 292 295 289 282 277 283 290 301 302 306 306 309 311 312 312 313 313 312 311 311 309 308 306 304 302 299 297 295 292 291 290 289 288 286 285 283 281 279 275
311 306 309 304 297 293 293 288 287 295 298 301 303 310 311 313 315 317 318 318 318 317 317 316 315 313 312 310 308 306 303 300 296 294 293 292 290 289 288 287 285 282 280 277
324 319 316 311 305 300 297 300 306 309 303 308 310 315 322 323 323 323 323 323 323 321 320 320 319 317 316 315 313 311 307 302 299 297 295 294 293 292 291 289 287 284 280 276
333 327 321 319 319 321 322 322 323 322 320 321 315 309 327 327 328 327 328 328 326 325 324 323 322 321 320 319 317 314 309 305 302 300 298 297 297 296 295 292 289 286 282 278
343 343 335 336 341 343 342 340 338 333 327 329 328 322 333 331 331 331 332 331 329 328 328 326 325 324 323 321 318 314 310 307 304 302 301 301 300 300 298 296 293 289 284 279
347 352 357 351 350 351 350 348 343 336 334 334 332 326 334 334 334 335 336 333 332 332 331 329 327 326 325 323 320 315 311 308 306 305 305 304 304 303 302 299 296 292 287 282
337 346 354 337 334 342 346 346 341 337 335 333 333 331 333 336 336 338 338 336 335 334 333 331 330 328 327 325 322 318 314 311 310 309 309 309 308 307 305 302 299 295 290 285
329 336 340 340 339 340 341 340 336 334 333 333 333 333 334 335 336 337 337 336 336 336 335 334 331 331 330 327 324 320 317 315 314 314 314 313 313 311 309 306 302 298 293 288
327 332 335 336 335 333 333 331 330 329 331 333 332 332 334 335 335 337 337 338 338 338 336 335 333 333 332 329 326 322 320 318 317 318 318 317 316 315 312 308 305 301 296 291
331 334 335 333 331 328 325 328 327 327 329 333 333 333 334 335 335 337 338 339 338 338 337 336 335 334 334 332 329 326 323 322 322 322 321 321 320 318 315 312 309 304 299 293
326 328 329 328 326 328 325 324 323 325 329 332 333 333 334 336 336 338 338 338 338 338 338 337 336 336 336 334 331 329 327 326 326 326 325 325 324 322 321 318 314 309 304 297
319 320 321 323 326 323 320 323 325 328 331 332 333 334 335 337 336 338 339 339 339 339 339 338 337 337 337 336 333 331 329 329 329 329 329 329 328 327 326 323 320 316 310 301
310 312 315 318 320 320 321 325 326 328 331 334 335 336 337 338 338 338 339 339 339 338 338 338 337 337 338 337 334 332 331 331 332 332 332 333 333 332 331 329 327 323 318 309
303 305 308 311 315 316 320 323 325 329 332 334 335 337 337 338 338 338 338 338 338 338 338 338 337 337 338 338 336 334 333 334 334 335 336 336 336 336 335 334 332 329 325 318
298 301 303 306 310 312 318 322 325 327 330 332 334 336 336 337 336 336 337 337 338 338 338 337 336 336 338 338 338 336 335 336 337 338 339 339 339 340 340 339 338 335 332 326
295 297 300 305 307 310 315 320 323 326 329 331 333 334 335 335 335 336 337 337 338 338 337 337 336 337 338 339 339 339 338 338 340 341 342 343 343 344 345 345 344 341 339 333
297 299 301 303 305 309 313 317 322 325 328 329 331 333 334 334 334 335 337 338 338 337 337 337 337 337 339 340 340 340 340 341 342 344 345 346 348 349 349 350 350 349 345 342
299 304 303 303 304 307 311 315 320 323 326 327 329 330 332 333 334 335 337 338 338 338 338 338 338 338 340 341 342 341 342 343 344 347 348 350 351 352 353 355 356 356 355 353
303 306 305 304 304 307 311 315 319 322 324 326 327 329 330 332 334 336 338 340 340 341 340 339 338 339 340 342 343 343 343 344 346 349 351 352 354 355 357 359 0 1 2 3